COSMOS 827

Satellite information

Favourite Embed

Satellite Type and Status

PAYLOADIN ORBIT

Key statistics

Satellite COSMOS 827 at a glance.

Uptime

18084

Days in orbit

Revolutions

≈ 12.5

Per day

Orbit

LEO

Low Earth Orbit

Inclination

74.0

Latest

Satellite identification and parameters

Extended collection of information and parameters for COSMOS 827.

Object identification

Identified? True

Debris? False

Object name: COSMOS 827

International designator: 1976-054C

Object number (NORAD): 8891

Object ID (CCSDS): 8891

Country: COMMONWEALTH OF INDEPENDENT STATES (CIS)

Current information (Y/N): Y

RCS size: MEDIUM

Orbital parameters

Period: 114.896 minutes

Inclination: 74.0017 deg

SMA: 7828.833 km

Apoapsis: 1489.08 km

Periapsis: 1412.316 km

RAAN: 15.7138 deg

Eccentricy: 0.00490269

Argument of periapsis: 193.3863 deg

Mean anomaly: 281.1568 deg

Mean motion: 12.53306286 rev/day

Mean motion (dot): 0.00000003 rev/day2

B* drag term: 0.00012132781 1/REarth

Two-line elements (TLE)

Creation date: Dec. 18, 2025, 8:02 p.m.

Reference frame: TEME

Reference center: EARTH

Epoch: Dec. 18, 2025, 12:54 p.m. UTC

TLE line 0: 0 COSMOS 827

TLE line 1: 1 08891U 76054C 25352.53800884 .00000003 00000-0 12133-3 0 9997

TLE line 2: 2 08891 74.0017 15.7138 0049027 193.3863 281.1568 12.53306286682910

Live tracking on map

Real-time ground track for satellite COSMOS 827.

In-orbit conjunctions

A list of the most updated potential collisions computed for object COSMOS 827.

Target Orbit TCA Probability of collision Miss distance Type
THORAD DELTA 1 DEB SSO 2025-12-07 05:35:48 0.0001247945 179.0 (m) DEBRIS
COSMOS 1931 LEO 2025-05-17 06:19:17 0.03046397 24.0 (m) PAYLOAD

Associated space launch

Military communications satellites

COSMOS 827 was lifted into orbit during the mission ‘Kosmos-3M | Strela-1M 113-120’, on board a Kosmos-3M space rocket.

The launch took place on June 15, 1976, 1:19 p.m. from 132/2.

For more information about the launch, click the button.

Launch to space Kosmos-3M | Strela-1M 113-120
Kosmos-3M | Strela-1M 113-120

Agency: N/A

Status: Launch Successful

Launch date: June 15, 1976, 1:19 p.m. UTC

Rocket: Kosmos-3M

Launch pad: 132/2

Location: Plesetsk Cosmodrome, Russian Federation

...

Latest news about this satellite

There are no fresh news available about this satellite. Check back as we update our databases every day.


Newsletter sign-up

Weekly statistics, charts and insights to help you stay on top of the space industry.